Time,TemperatureF,DewpointF,PressureIn,WindDirection,WindDirectionDegrees,WindSpeedMPH,WindSpeedGustMPH,Humidity,HourlyPrecipIn,Conditions,Clouds,dailyrainin,SoftwareType,DateUTC
2013-09-12 00:00:00,67.0,61.0,30.05,South,186,0.0,7.0,81,0.00,,,0.00,weatherlink.com 1.10,2013-09-12 05:00:00,
2013-09-12 00:15:00,66.9,62.0,30.04,South,186,0.0,5.0,83,0.00,,,0.00,weatherlink.com 1.10,2013-09-12 05:15:00,
2013-09-12 00:30:00,66.1,62.0,30.04,South,176,0.0,8.0,85,0.00,,,0.00,weatherlink.com 1.10,2013-09-12 05:30:00,
2013-09-12 00:45:00,65.8,61.0,30.04,South,179,0.0,7.0,84,0.00,,,0.00,weatherlink.com 1.10,2013-09-12 05:45:00,
2013-09-12 01:00:00,65.8,61.0,30.04,South,179,0.0,4.0,84,0.00,,,0.00,weatherlink.com 1.10,2013-09-12 06:00:00,
2013-09-12 01:15:00,65.5,61.0,30.04,South,173,6.0,7.0,86,0.00,,,0.00,weatherlink.com 1.10,2013-09-12 06:15:00,
2013-09-12 01:30:00,65.1,60.0,30.03,SSE,168,7.0,10.0,84,0.00,,,0.00,weatherlink.com 1.10,2013-09-12 06:30:00,
2013-09-12 01:45:00,64.4,60.0,30.04,SW,230,0.0,12.0,85,0.00,,,0.00,weatherlink.com 1.10,2013-09-12 06:45:00,
2013-09-12 02:00:00,63.7,60.0,30.05,South,171,0.0,6.0,86,0.00,,,0.00,weatherlink.com 1.10,2013-09-12 07:00:00,
2013-09-12 02:15:00,63.8,60.0,30.04,South,171,1.0,2.0,86,0.00,,,0.00,weatherlink.com 1.10,2013-09-12 07:15:00,
2013-09-12 02:30:00,65.1,58.0,30.05,West,261,0.0,8.0,79,0.00,,,0.00,weatherlink.com 1.10,2013-09-12 07:30:00,
2013-09-12 02:45:00,65.9,58.0,30.05,WSW,242,0.0,6.0,75,0.00,,,0.00,weatherlink.com 1.10,2013-09-12 07:45:00,
2013-09-12 03:00:00,65.6,58.0,30.05,WSW,242,0.0,0.0,75,0.00,,,0.00,weatherlink.com 1.10,2013-09-12 08:00:00,
2013-09-12 03:15:00,65.0,57.0,30.05,WSW,242,0.0,4.0,76,0.00,,,0.00,weatherlink.com 1.10,2013-09-12 08:15:00,
2013-09-12 03:30:00,64.4,57.0,30.05,WSW,242,0.0,1.0,77,0.00,,,0.00,weatherlink.com 1.10,2013-09-12 08:30:00,
2013-09-12 03:45:00,63.9,58.0,30.06,WSW,242,0.0,0.0,80,0.00,,,0.00,weatherlink.com 1.10,2013-09-12 08:45:00,
2013-09-12 04:00:00,62.8,57.0,30.06,WSW,242,0.0,0.0,82,0.00,,,0.00,weatherlink.com 1.10,2013-09-12 09:00:00,
2013-09-12 04:15:00,63.4,57.0,30.06,WSW,242,0.0,0.0,79,0.00,,,0.00,weatherlink.com 1.10,2013-09-12 09:15:00,
2013-09-12 04:30:00,62.7,57.0,30.07,WSW,242,0.0,0.0,82,0.00,,,0.00,weatherlink.com 1.10,2013-09-12 09:30:00,
2013-09-12 04:45:00,63.1,56.0,30.07,WSW,242,0.0,1.0,78,0.00,,,0.00,weatherlink.com 1.10,2013-09-12 09:45:00,
2013-09-12 05:00:00,63.5,56.0,30.08,WSW,242,4.0,4.0,77,0.00,,,0.00,weatherlink.com 1.10,2013-09-12 10:00:00,
2013-09-12 05:15:00,64.3,57.0,30.09,WNW,294,0.0,14.0,76,0.00,,,0.00,weatherlink.com 1.10,2013-09-12 10:15:00,
2013-09-12 05:30:00,65.4,57.0,30.09,WNW,299,7.0,14.0,73,0.00,,,0.00,weatherlink.com 1.10,2013-09-12 10:30:00,
2013-09-12 05:45:00,65.1,57.0,30.09,West,281,10.0,22.0,74,0.00,,,0.00,weatherlink.com 1.10,2013-09-12 10:45:00,
2013-09-12 06:01:00,64.5,56.0,30.09,NW,317,16.0,24.0,73,0.00,,,0.00,weatherlink.com 1.10,2013-09-12 11:01:00,
2013-09-12 06:16:00,63.9,55.0,30.11,NW,312,4.0,22.0,74,0.00,,,0.00,weatherlink.com 1.10,2013-09-12 11:16:00,
2013-09-12 06:31:00,63.2,56.0,30.11,NW,321,12.0,22.0,76,0.00,,,0.00,weatherlink.com 1.10,2013-09-12 11:31:00,
2013-09-12 06:46:00,62.5,55.0,30.11,NNW,333,18.0,24.0,77,0.00,,,0.00,weatherlink.com 1.10,2013-09-12 11:46:00,
2013-09-12 07:01:00,61.7,55.0,30.12,NW,310,14.0,24.0,79,0.00,,,0.00,weatherlink.com 1.10,2013-09-12 12:01:00,
2013-09-12 07:16:00,61.1,55.0,30.12,North,351,1.0,16.0,81,0.00,,,0.00,weatherlink.com 1.10,2013-09-12 12:16:00,
2013-09-12 07:31:00,61.0,56.0,30.13,NW,318,10.0,18.0,82,0.00,,,0.00,weatherlink.com 1.10,2013-09-12 12:31:00,
2013-09-12 07:46:00,61.1,56.0,30.14,WNW,295,6.0,13.0,83,0.00,,,0.00,weatherlink.com 1.10,2013-09-12 12:46:00,
2013-09-12 08:01:00,61.5,56.0,30.15,NNW,329,6.0,19.0,81,0.00,,,0.00,weatherlink.com 1.10,2013-09-12 13:01:00,
2013-09-12 08:16:00,61.5,55.0,30.15,NW,319,12.0,16.0,80,0.00,,,0.00,weatherlink.com 1.10,2013-09-12 13:16:00,
2013-09-12 08:31:00,62.1,56.0,30.14,NNW,344,2.0,14.0,80,0.00,,,0.00,weatherlink.com 1.10,2013-09-12 13:31:00,
2013-09-12 08:46:00,62.2,55.0,30.15,NW,323,2.0,14.0,77,0.00,,,0.00,weatherlink.com 1.10,2013-09-12 13:46:00,
2013-09-12 09:01:00,62.4,55.0,30.15,WNW,283,5.0,12.0,77,0.00,,,0.00,weatherlink.com 1.10,2013-09-12 14:01:00,
2013-09-12 09:16:00,62.7,55.0,30.16,West,263,9.0,18.0,75,0.00,,,0.00,weatherlink.com 1.10,2013-09-12 14:16:00,
2013-09-12 09:31:00,63.3,55.0,30.16,NW,321,2.0,12.0,74,0.00,,,0.00,weatherlink.com 1.10,2013-09-12 14:31:00,
2013-09-12 09:46:00,63.8,55.0,30.16,NW,317,6.0,14.0,72,0.00,,,0.00,weatherlink.com 1.10,2013-09-12 14:46:00,
2013-09-12 10:01:00,64.6,55.0,30.16,NNW,335,8.0,15.0,71,0.00,,,0.00,weatherlink.com 1.10,2013-09-12 15:01:00,
2013-09-12 10:16:00,64.9,54.0,30.17,WNW,288,11.0,14.0,69,0.00,,,0.00,weatherlink.com 1.10,2013-09-12 15:16:00,
2013-09-12 10:31:00,65.2,53.0,30.18,WNW,290,4.0,19.0,66,0.00,,,0.00,weatherlink.com 1.10,2013-09-12 15:31:00,
2013-09-12 10:46:00,65.5,55.0,30.18,NNW,336,11.0,16.0,68,0.00,,,0.00,weatherlink.com 1.10,2013-09-12 15:46:00,
2013-09-12 11:01:00,66.5,55.0,30.18,NW,313,7.0,14.0,66,0.00,,,0.00,weatherlink.com 1.10,2013-09-12 16:01:00,
2013-09-12 11:16:00,67.4,54.0,30.18,SSW,213,2.0,15.0,62,0.00,,,0.00,weatherlink.com 1.10,2013-09-12 16:16:00,
2013-09-12 11:31:00,67.3,53.0,30.17,NNW,344,10.0,20.0,60,0.00,,,0.00,weatherlink.com 1.10,2013-09-12 16:31:00,
2013-09-12 11:46:00,68.1,53.0,30.17,WNW,302,9.0,20.0,58,0.00,,,0.00,weatherlink.com 1.10,2013-09-12 16:46:00,
2013-09-12 12:01:00,68.1,53.0,30.17,WNW,295,4.0,24.0,58,0.00,,,0.00,weatherlink.com 1.10,2013-09-12 17:01:00,
2013-09-12 12:16:00,68.6,53.0,30.17,NW,313,9.0,16.0,58,0.00,,,0.00,weatherlink.com 1.10,2013-09-12 17:16:00,
2013-09-12 12:31:00,68.0,52.0,30.18,North,5,14.0,24.0,58,0.00,,,0.00,weatherlink.com 1.10,2013-09-12 17:31:00,
2013-09-12 12:46:00,68.5,52.0,30.17,NNW,340,14.0,20.0,57,0.00,,,0.00,weatherlink.com 1.10,2013-09-12 17:46:00,
2013-09-12 13:01:00,68.8,52.0,30.17,NNW,332,14.0,21.0,56,0.00,,,0.00,weatherlink.com 1.10,2013-09-12 18:01:00,
2013-09-12 13:16:00,68.3,53.0,30.17,WSW,257,8.0,16.0,58,0.00,,,0.00,weatherlink.com 1.10,2013-09-12 18:16:00,
2013-09-12 13:31:00,68.7,53.0,30.16,NW,313,11.0,19.0,58,0.00,,,0.00,weatherlink.com 1.10,2013-09-12 18:31:00,
2013-09-12 13:46:00,69.3,52.0,30.16,WNW,287,13.0,19.0,55,0.00,,,0.00,weatherlink.com 1.10,2013-09-12 18:46:00,
2013-09-12 14:01:00,69.4,53.0,30.17,West,270,8.0,21.0,56,0.00,,,0.00,weatherlink.com 1.10,2013-09-12 19:01:00,
2013-09-12 14:16:00,69.7,52.0,30.17,West,267,6.0,22.0,54,0.00,,,0.00,weatherlink.com 1.10,2013-09-12 19:16:00,
2013-09-12 14:31:00,70.3,52.0,30.16,NW,306,8.0,21.0,53,0.00,,,0.00,weatherlink.com 1.10,2013-09-12 19:31:00,
2013-09-12 14:46:00,70.5,52.0,30.16,WNW,289,11.0,22.0,52,0.00,,,0.00,weatherlink.com 1.10,2013-09-12 19:46:00,
2013-09-12 15:01:00,71.2,52.0,30.15,WNW,303,9.0,19.0,51,0.00,,,0.00,weatherlink.com 1.10,2013-09-12 20:01:00,
2013-09-12 15:16:00,70.8,52.0,30.15,West,275,8.0,23.0,51,0.00,,,0.00,weatherlink.com 1.10,2013-09-12 20:16:00,
2013-09-12 15:31:00,71.5,51.0,30.15,WSW,244,5.0,22.0,49,0.00,,,0.00,weatherlink.com 1.10,2013-09-12 20:31:00,
2013-09-12 15:47:00,71.7,50.0,30.15,NNW,333,5.0,21.0,47,0.00,,,0.00,weatherlink.com 1.10,2013-09-12 20:47:00,
2013-09-12 16:02:00,72.1,49.0,30.14,NW,305,12.0,24.0,44,0.00,,,0.00,weatherlink.com 1.10,2013-09-12 21:02:00,
2013-09-12 16:17:00,71.7,50.0,30.15,NNW,334,15.0,21.0,47,0.00,,,0.00,weatherlink.com 1.10,2013-09-12 21:17:00,
2013-09-12 16:32:00,71.8,50.0,30.14,WNW,292,5.0,19.0,47,0.00,,,0.00,weatherlink.com 1.10,2013-09-12 21:32:00,
2013-09-12 16:47:00,72.2,48.0,30.15,NW,311,7.0,20.0,43,0.00,,,0.00,weatherlink.com 1.10,2013-09-12 21:47:00,
2013-09-12 17:02:00,72.1,50.0,30.14,West,262,14.0,20.0,45,0.00,,,0.00,weatherlink.com 1.10,2013-09-12 22:02:00,
2013-09-12 17:17:00,72.1,49.0,30.15,SW,236,5.0,22.0,44,0.00,,,0.00,weatherlink.com 1.10,2013-09-12 22:17:00,
2013-09-12 17:32:00,71.3,49.0,30.15,WNW,297,8.0,26.0,45,0.00,,,0.00,weatherlink.com 1.10,2013-09-12 22:32:00,
2013-09-12 17:47:00,71.3,49.0,30.15,West,275,6.0,21.0,46,0.00,,,0.00,weatherlink.com 1.10,2013-09-12 22:47:00,
2013-09-12 18:02:00,71.4,50.0,30.16,NW,322,8.0,14.0,47,0.00,,,0.00,weatherlink.com 1.10,2013-09-12 23:02:00,
2013-09-12 18:17:00,70.9,50.0,30.16,NNW,339,4.0,16.0,47,0.00,,,0.00,weatherlink.com 1.10,2013-09-12 23:17:00,
2013-09-12 18:32:00,70.9,50.0,30.16,NW,315,8.0,12.0,48,0.00,,,0.00,weatherlink.com 1.10,2013-09-12 23:32:00,
2013-09-12 18:47:00,70.0,49.0,30.17,NW,307,7.0,18.0,48,0.00,,,0.00,weatherlink.com 1.10,2013-09-12 23:47:00,
2013-09-12 19:02:00,69.3,49.0,30.17,NNW,338,10.0,21.0,48,0.00,,,0.00,weatherlink.com 1.10,2013-09-13 00:02:00,
2013-09-12 19:17:00,68.9,48.0,30.17,NW,320,5.0,16.0,48,0.00,,,0.00,weatherlink.com 1.10,2013-09-13 00:17:00,
2013-09-12 19:32:00,68.3,49.0,30.18,WNW,291,7.0,14.0,50,0.00,,,0.00,weatherlink.com 1.10,2013-09-13 00:32:00,
2013-09-12 19:47:00,67.7,49.0,30.18,WNW,292,0.0,11.0,52,0.00,,,0.00,weatherlink.com 1.10,2013-09-13 00:47:00,
2013-09-12 20:02:00,66.8,48.0,30.19,NNW,338,4.0,16.0,52,0.00,,,0.00,weatherlink.com 1.10,2013-09-13 01:02:00,
2013-09-12 20:17:00,66.3,49.0,30.20,NNW,331,8.0,12.0,54,0.00,,,0.00,weatherlink.com 1.10,2013-09-13 01:17:00,
2013-09-12 20:32:00,65.8,49.0,30.20,NNW,332,7.0,10.0,55,0.00,,,0.00,weatherlink.com 1.10,2013-09-13 01:32:00,
2013-09-12 20:47:00,65.2,49.0,30.20,North,355,5.0,12.0,56,0.00,,,0.00,weatherlink.com 1.10,2013-09-13 01:47:00,
2013-09-12 21:02:00,64.8,49.0,30.21,NW,315,1.0,12.0,58,0.00,,,0.00,weatherlink.com 1.10,2013-09-13 02:02:00,
2013-09-12 21:17:00,64.2,50.0,30.21,NNW,330,7.0,9.0,60,0.00,,,0.00,weatherlink.com 1.10,2013-09-13 02:17:00,
2013-09-12 21:32:00,63.8,50.0,30.21,NW,324,9.0,10.0,61,0.00,,,0.00,weatherlink.com 1.10,2013-09-13 02:32:00,
2013-09-12 21:47:00,63.6,49.0,30.21,North,9,7.0,16.0,60,0.00,,,0.00,weatherlink.com 1.10,2013-09-13 02:47:00,
2013-09-12 22:02:00,62.9,49.0,30.22,NNW,342,8.0,11.0,61,0.00,,,0.00,weatherlink.com 1.10,2013-09-13 03:02:00,
2013-09-12 22:17:00,62.4,49.0,30.22,NNW,348,11.0,11.0,62,0.00,,,0.00,weatherlink.com 1.10,2013-09-13 03:17:00,
2013-09-12 22:32:00,62.0,49.0,30.22,NNE,13,7.0,11.0,63,0.00,,,0.00,weatherlink.com 1.10,2013-09-13 03:32:00,
2013-09-12 22:47:00,61.4,49.0,30.22,North,10,5.0,10.0,63,0.00,,,0.00,weatherlink.com 1.10,2013-09-13 03:47:00,
2013-09-12 23:02:00,60.9,49.0,30.23,North,355,5.0,9.0,65,0.00,,,0.00,weatherlink.com 1.10,2013-09-13 04:02:00,
2013-09-12 23:17:00,60.5,49.0,30.23,North,350,0.0,10.0,66,0.00,,,0.00,weatherlink.com 1.10,2013-09-13 04:17:00,
2013-09-12 23:32:00,60.2,49.0,30.24,North,355,6.0,9.0,66,0.00,,,0.00,weatherlink.com 1.10,2013-09-13 04:32:00,
2013-09-12 23:47:00,59.7,49.0,30.24,North,355,7.0,9.0,67,0.00,,,0.00,weatherlink.com 1.10,2013-09-13 04:47:00,